This is the latest recevied weather packets stored in our database for station/object EA1BQO-1. If no packets are shown the sender has not sent any weather packets the latest 10 day(s).
| Time | Temp. | Humidity | Pressure | Rain* | Wind** | Luminosity | Snow |
|---|---|---|---|---|---|---|---|
| 1777904032 | 16.67° C | 33% | 1009.3 hPa | 0 mm | - | - | - |
| 1777903432 | 16.67° C | 31% | 1009.5 hPa | 0 mm | - | - | - |
| 1777902832 | 16.67° C | 33% | 1009.5 hPa | 0 mm | - | - | - |
| 1777902232 | 16.11° C | 38% | 1009.7 hPa | 0 mm | - | - | - |
| 1777901632 | 15.56° C | 38% | 1009.6 hPa | 0 mm | - | - | - |
| 1777901032 | 16.67° C | 37% | 1009.7 hPa | 0 mm | - | - | - |
| 1777900432 | 16.67° C | 39% | 1009.6 hPa | 0 mm | - | - | - |
| 1777899832 | 16.67° C | 41% | 1009.8 hPa | 0 mm | - | - | - |
| 1777899232 | 16.11° C | 43% | 1009.9 hPa | 0 mm | - | - | - |
| 1777898632 | 15.56° C | 45% | 1010 hPa | 0 mm | - | - | - |
| 1777898032 | 15.56° C | 40% | 1009.9 hPa | 0 mm | - | - | - |
| 1777897432 | 15.56° C | 45% | 1010 hPa | 0 mm | - | - | - |
| 1777896832 | 14.44° C | 48% | 1010.1 hPa | 0 mm | - | - | - |
| 1777896232 | 14.44° C | 49% | 1010.3 hPa | 0 mm | - | - | - |
| 1777895632 | 15° C | 48% | 1010.3 hPa | 0 mm | - | - | - |
| 1777895032 | 14.44° C | 48% | 1010.3 hPa | 0 mm | - | - | - |
| 1777894432 | 14.44° C | 48% | 1010.2 hPa | 0 mm | - | - | - |
| 1777893832 | 13.89° C | 50% | 1010.4 hPa | 0 mm | - | - | - |
| 1777893232 | 14.44° C | 48% | 1010.4 hPa | 0 mm | - | - | - |
| 1777892632 | 15° C | 48% | 1010.5 hPa | 0 mm | - | - | - |
| 1777892032 | 15° C | 51% | 1010.5 hPa | 0 mm | - | - | - |
| 1777891432 | 15° C | 52% | 1010.6 hPa | 0 mm | - | - | - |
| 1777890832 | 14.44° C | 51% | 1010.6 hPa | 0 mm | - | - | - |
| 1777890232 | 14.44° C | 55% | 1010.7 hPa | 0 mm | - | - | - |
| 1777889632 | 13.89° C | 61% | 1010.7 hPa | 0 mm | - | - | - |
* Rain latest hour (hover to see other rain measurements)
** Current wind speed in m/s (hover to see current wind gust speed)